PILOTS ONLINE: 224    ATC ONLINE: 37

EGHH

Bournemouth Airport

Location

IATA BOH
City Bournemouth
Country  United Kingdom
Latitude 50° 46' 47" N
Longitude 1° 50' 33" W
Elevation 38 ft
Type Large Airport

Map

Weather

METAR
2014/10/01 09:50
EGHH 010950Z 26007KT 9999 FEW030 18/13 Q1025
TAF
2013/12/01 21:21
TAF TAF EGHH 010016Z 3021/0106 CNL

Runways

08/26 7451 ft / 151 ft

Outbound flights

Callsign Flying to Pilot ATD/STD ETA Aircraft

Inbound flights

Callsign Flying from Pilot ATD ETA Aircraft